DG0CCO-13 Weather Reports


time (UTC)temp
F
wind
direction
speed
knots
gust
knots
rain 1hr
in
rain 24hr
in
rain mn
in
humidity
%
barometer
mb
20260506145617 0 258 0.0 0.9 0.00 0.49 0.46
20260506143516 0 265 0.9 1.7 0.00 0.49 0.46
20260506142623 0 175 0.9 2.6 0.00 0.49 0.46
20260506141518 0 244 0.9 2.6 0.00 0.49 0.46
20260506140523 0 280 0.0 1.7 0.00 0.49 0.46
20260506135618 0 257 0.0 1.7 0.00 0.49 0.46
20260506134522 0 235 0.0 0.9 0.00 0.49 0.46
20260506133627 0 220 0.0 1.7 0.00 0.49 0.46
20260506132520 0 228 0.0 0.9 0.00 0.49 0.46
20260506131530 0 192 0.9 0.9 0.00 0.49 0.46
20260506130625 0 216 0.9 2.6 0.00 0.49 0.46
20260506125631 0 226 0.9 1.7 0.00 0.49 0.46
20260506124620 0 184 0.0 1.7 0.00 0.49 0.46
20260506123516 0 208 0.0 0.9 0.00 0.49 0.46
20260506121626 0 285 0.9 1.7 0.00 0.49 0.46
20260506120519 0 234 0.0 1.7 0.00 0.49 0.46
20260506115525 0 266 0.0 0.9 0.02 0.49 0.46
20260506111526 0 263 0.9 0.9 0.02 0.49 0.46
20260506105525 0 242 0.9 2.6 0.00 0.46 0.44
20260506104619 0 232 0.0 3.5 0.00 0.46 0.44
20260506102615 0 216 0.0 1.7 0.02 0.46 0.44
20260506100523 0 280 0.0 1.7 0.02 0.46 0.44
20260506094522 0 293 0.0 0.9 0.02 0.46 0.44
20260506093517 0 252 0.0 0.9 0.00 0.44 0.41
20260506092522 0 282 0.9 2.6 0.00 0.44 0.41
20260506091526 0 270 0.9 0.9 0.02 0.44 0.41
20260506085626 0 240 0.9 2.6 0.02 0.44 0.41
20260506084518 0 254 0.0 0.9 0.02 0.44 0.41
20260506083525 0 203 0.0 1.7 0.02 0.44 0.41
20260506080526 0 277 0.9 1.7 0.02 0.41 0.38
20260506072524 0 244 0.0 1.7 0.07 0.38 0.36
20260506071517 0 219 0.9 2.6 0.07 0.38 0.36
20260506061517 0 233 0.0 1.7 0.05 0.31 0.28
20260506060622 0 227 0.0 1.7 0.05 0.31 0.28
20260506043521 0 246 0.0 1.7 0.07 0.23 0.20
20260506042525 0 291 0.0 1.7 0.07 0.20 0.18
20260506041620 0 274 0.0 0.9 0.10 0.20 0.18
20260506040626 0 302 0.0 0.9 0.10 0.18 0.15
20260506035520 0 233 0.0 3.5 0.10 0.18 0.15
20260506034625 0 247 0.9 1.7 0.10 0.18 0.15
20260506033620 0 268 0.0 0.9 0.10 0.15 0.12
20260506032646 0 341 0.9 1.7 0.07 0.12 0.10
20260506031621 0 250 0.9 4.3 0.07 0.10 0.07
20260506025518 0 245 0.9 1.7 0.05 0.07 0.05
20260506024622 0 224 0.9 1.7 0.05 0.07 0.05
20260506022522 0 263 0.9 1.7 0.02 0.07 0.02
20260506021516 0 224 0.9 0.9 0.00 0.05 0.00
20260506020522 0 236 0.9 1.7 0.00 0.05 0.00
20260506015516 0 291 0.9 1.7 0.00 0.05 0.00
20260506014522 0 225 0.9 2.6 0.00 0.05 0.00
20260506013516 0 245 0.9 2.6 0.00 0.05 0.00
20260506012621 0 274 0.9 3.5 0.00 0.05 0.00
20260506011526 0 241 0.9 2.6 0.00 0.05 0.00
20260506010621 0 207 0.9 1.7 0.00 0.05 0.00
20260506004518 0 239 0.9 1.7 0.00 0.05 0.00
20260506003524 0 279 0.9 1.7 0.00 0.05 0.00
20260506002519 0 235 0.9 1.7 0.00 0.05 0.00
20260506001624 0 218 0.9 2.6 0.00 0.07 0.00
20260506000517 0 275 0.9 1.7 0.00 0.10 0.00
20260505234618 0 266 0.9 0.9 0.00 0.15 0.00
20260505233624 0 243 0.9 2.6 0.00 0.15 0.00
20260505232517 0 345 0.9 2.6 0.00 0.15 0.00
20260505231625 0 206 0.9 0.9 0.00 0.18 0.00
20260505230517 0 301 1.7 2.6 0.00 0.20 0.00
20260505225521 0 216 0.9 2.6 0.00 0.20 0.00
20260505224517 0 237 0.9 2.6 0.00 0.20 0.00
20260505223522 0 285 0.9 1.7 0.00 0.20 0.00
20260505221521 0 317 0.9 1.7 0.00 0.20 0.00
20260505215522 0 228 0.9 2.6 0.00 0.20 0.20
20260505204529 0 252 0.9 2.6 0.00 0.20 0.20
20260505203519 0 274 0.9 2.6 0.00 0.20 0.20
20260505201520 0 229 0.9 3.5 0.00 0.20 0.20
20260505200526 0 224 0.9 2.6 0.02 0.20 0.20
20260505193520 0 287 0.9 2.6 0.02 0.20 0.20
20260505192524 0 251 0.9 0.9 0.02 0.20 0.20
20260505185519 0 228 0.9 3.5 0.00 0.18 0.18
20260505181517 0 272 0.9 1.7 0.00 0.18 0.18
20260505172520 0 0 0.9 1.7 0.00 0.18 0.18
20260505171525 0 257 0.9 3.5 0.00 0.18 0.18
20260505170619 0 265 0.9 1.7 0.00 0.18 0.18
20260505165524 0 279 0.9 0.9 0.00 0.18 0.18
20260505164518 0 211 0.9 3.5 0.00 0.18 0.18
20260505161621 0 247 0.9 2.6 0.00 0.18 0.18
20260505160616 0 303 1.7 4.3 0.00 0.18 0.18
20260505152515 0 272 1.7 2.6 0.00 0.18 0.18
20260505151620 0 232 0.9 3.5 0.00 0.18 0.18
20260505150615 0 243 0.9 5.2 0.00 0.18 0.18